,,Stat5,,Stat1,,Stat2,,Stat3,,Stat4,,Wind1,,Wind1,
time,status,PA1M_AVG,status,PR1M_SUM,status,RH1M_AVG,status,SR1M_AVG,status,TA1M_AVG,status,W1dAve1m,status,W1sAve1m,
2000-04-02, 00:00:03,VALID,916.834,VALID,0,VALID,98.9537,VALID,-0.101885,VALID,18.7371,VALID,80,VALID,1.18663,
2000-04-02, 00:01:00,VALID,916.832,VALID,0,VALID,98.9194,VALID,-0.0849042,VALID,18.7336,VALID,51,VALID,0.849554,
2000-04-02, 00:02:00,VALID,916.828,VALID,0,VALID,98.8609,VALID,-0.0849042,VALID,18.7627,VALID,34,VALID,0.253084,
2000-04-02, 00:03:00,VALID,916.835,VALID,0,VALID,98.8037,VALID,-0.101885,VALID,18.7592,VALID,53,VALID,0.217548,
2000-04-02, 00:04:00,VALID,916.834,VALID,0,VALID,98.7515,VALID,-0.0849042,VALID,18.7758,VALID,94,VALID,0.802951,
2000-04-02, 00:05:00,VALID,916.843,VALID,0,VALID,98.7388,VALID,-0.101885,VALID,18.7689,VALID,97,VALID,0.590625,
2000-04-02, 00:06:00,VALID,916.855,VALID,0,VALID,98.7261,VALID,-0.101885,VALID,18.7592,VALID,112,VALID,0.257179,
2000-04-02, 00:07:00,VALID,916.869,VALID,0,VALID,98.721,VALID,-0.101885,VALID,18.7527,VALID,107,VALID,0.197461,
2000-04-02, 00:08:00,VALID,916.893,VALID,0,VALID,98.6981,VALID,-0.101885,VALID,18.753,VALID,88,VALID,0.383213,
2000-04-02, 00:09:00,VALID,916.912,VALID,0,VALID,98.7172,VALID,-0.0679233,VALID,18.7401,VALID,107,VALID,0.458398,
2000-04-02, 00:10:00,VALID,916.934,VALID,0,VALID,98.7363,VALID,-0.0849042,VALID,18.7428,VALID,98,VALID,0.514186,
2000-04-02, 00:11:00,VALID,916.951,VALID,0,VALID,98.7096,VALID,-0.0679233,VALID,18.7438,VALID,72,VALID,0.381055,
2000-04-02, 00:12:00,VALID,916.953,VALID,0,VALID,98.693,VALID,-0.0679233,VALID,18.7627,VALID,106,VALID,0.22476,
2000-04-02, 00:13:00,VALID,916.96,VALID,0,VALID,98.5926,VALID,-0.0849042,VALID,18.7661,VALID,134,VALID,0.0455078,
2000-04-02, 00:14:00,VALID,916.956,VALID,0,VALID,98.5125,VALID,-0.0679233,VALID,18.756,VALID,89,VALID,0.771382,
2000-04-02, 00:15:00,VALID,916.962,VALID,0,VALID,98.4731,VALID,-0.0849042,VALID,18.7687,VALID,73,VALID,0.949609,
2000-04-02, 00:16:00,VALID,916.959,VALID,0,VALID,98.3701,VALID,-0.0509425,VALID,18.788,VALID,75,VALID,1.14042,
2000-04-02, 00:17:00,VALID,916.942,VALID,0,VALID,98.2416,VALID,-0.101885,VALID,18.8273,VALID,98,VALID,0.6375,
2000-04-02, 00:18:00,VALID,916.941,VALID,0,VALID,98.1259,VALID,-0.0509425,VALID,18.8143,VALID,104,VALID,0.511924,
2000-04-02, 00:19:00,VALID,916.915,VALID,0,VALID,98.0585,VALID,-0.118866,VALID,18.8146,VALID,99,VALID,0.633008,
2000-04-02, 00:20:00,VALID,916.913,VALID,0,VALID,97.9809,VALID,-0.0849042,VALID,18.8146,VALID,85,VALID,0.403646,
2000-04-02, 00:21:00,VALID,916.907,VALID,0,VALID,97.9136,VALID,0,VALID,18.8032,VALID,78,VALID,0.255859,
2000-04-02, 00:22:00,VALID,916.904,VALID,0,VALID,97.883,VALID,0.0169808,VALID,18.8065,VALID,83,VALID,0.302632,
2000-04-02, 00:23:00,VALID,916.907,VALID,0,VALID,97.8296,VALID,0.0509425,VALID,18.7931,VALID,91,VALID,0,
2000-04-02, 00:24:00,VALID,916.916,VALID,0,VALID,97.7788,VALID,0.0169808,VALID,18.803,VALID,104,VALID,0.0180288,
2000-04-02, 00:25:00,VALID,916.92,VALID,0,VALID,97.7749,VALID,0.0169808,VALID,18.8032,VALID,107,VALID,0.672461,
2000-04-02, 00:26:00,VALID,916.94,VALID,0,VALID,97.7215,VALID,0,VALID,18.7767,VALID,97,VALID,0.844161,
2000-04-02, 00:27:00,VALID,916.98,VALID,0,VALID,97.7215,VALID,0.0169808,VALID,18.7645,VALID,91,VALID,0.950977,
2000-04-02, 00:28:00,VALID,916.997,VALID,0,VALID,97.7622,VALID,0.0339617,VALID,18.7583,VALID,97,VALID,0.638221,
2000-04-02, 00:29:00,VALID,916.996,VALID,0,VALID,97.7991,VALID,0,VALID,18.7384,VALID,105,VALID,0.915039,
2000-04-02, 00:30:00,VALID,916.992,VALID,0,VALID,97.836,VALID,0,VALID,18.7352,VALID,103,VALID,1.13775,
2000-04-02, 00:31:00,VALID,916.986,VALID,0,VALID,97.8271,VALID,0.0169808,VALID,18.7451,VALID,100,VALID,0.958203,
2000-04-02, 00:32:00,VALID,916.984,VALID,0,VALID,97.883,VALID,0.0169808,VALID,18.7774,VALID,104,VALID,0.640825,
2000-04-02, 00:33:00,VALID,916.991,VALID,0,VALID,97.8881,VALID,0.0339617,VALID,18.7935,VALID,87,VALID,0.81875,
2000-04-02, 00:34:00,VALID,916.995,VALID,0,VALID,97.8601,VALID,0,VALID,18.8032,VALID,85,VALID,1.02179,
2000-04-02, 00:35:00,VALID,916.977,VALID,0,VALID,97.7559,VALID,0.0169808,VALID,18.8226,VALID,90,VALID,0.932227,
2000-04-02, 00:36:00,VALID,916.968,VALID,0,VALID,97.7139,VALID,0.0339617,VALID,18.842,VALID,96,VALID,0.544271,
2000-04-02, 00:37:00,VALID,916.958,VALID,0,VALID,97.644,VALID,0.0679233,VALID,18.8482,VALID,72,VALID,0.443945,
2000-04-02, 00:38:00,VALID,916.965,VALID,0,VALID,97.6669,VALID,0.0169808,VALID,18.8388,VALID,15,VALID,0.642475,
2000-04-02, 00:39:00,VALID,916.957,VALID,0,VALID,97.7088,VALID,0.0849042,VALID,18.8318,VALID,10,VALID,0.413867,
2000-04-02, 00:40:00,VALID,916.929,VALID,0,VALID,97.6999,VALID,0.0509425,VALID,18.8316,VALID,54,VALID,0.0885417,
2000-04-02, 00:41:00,VALID,916.892,VALID,0,VALID,97.78,VALID,0.0679233,VALID,18.8388,VALID,75,VALID,0.189063,
2000-04-02, 00:42:00,VALID,916.881,VALID,0,VALID,97.8106,VALID,0.0679233,VALID,18.8482,VALID,90,VALID,0,
2000-04-02, 00:43:00,VALID,916.875,VALID,0,VALID,97.8067,VALID,0.0169808,VALID,18.8221,VALID,59,VALID,0,
2000-04-02, 00:44:00,VALID,916.87,VALID,0,VALID,97.8042,VALID,0,VALID,18.8191,VALID,32,VALID,0,
2000-04-02, 00:45:00,VALID,916.858,VALID,0,VALID,97.822,VALID,0.0509425,VALID,18.8258,VALID,32,VALID,0,
2000-04-02, 00:46:00,VALID,916.853,VALID,0,VALID,97.8614,VALID,0.0849042,VALID,18.8023,VALID,41,VALID,0,
2000-04-02, 00:47:00,VALID,916.82,VALID,0,VALID,97.8665,VALID,0.0339617,VALID,18.8097,VALID,42,VALID,0,
2000-04-02, 00:48:00,VALID,916.809,VALID,0,VALID,97.9479,VALID,0.0679233,VALID,18.7993,VALID,85,VALID,0,
2000-04-02, 00:49:00,VALID,916.786,VALID,0,VALID,98.0331,VALID,0.0679233,VALID,18.8159,VALID,89,VALID,0,
2000-04-02, 00:50:00,VALID,916.768,VALID,0,VALID,98.1145,VALID,0.0679233,VALID,18.8058,VALID,104,VALID,0,
2000-04-02, 00:51:00,VALID,916.715,VALID,0,VALID,98.1704,VALID,-0.0339617,VALID,18.8266,VALID,105,VALID,0,
2000-04-02, 00:52:00,VALID,916.683,VALID,0,VALID,98.2353,VALID,-0.0169808,VALID,18.8399,VALID,105,VALID,0,
2000-04-02, 00:53:00,VALID,916.662,VALID,0,VALID,98.1272,VALID,-0.0849042,VALID,18.8104,VALID,82,VALID,0.638477,
2000-04-02, 00:54:00,VALID,916.632,VALID,0,VALID,98.0534,VALID,-0.0509425,VALID,18.8333,VALID,93,VALID,1.14782,
2000-04-02, 00:55:00,VALID,916.608,VALID,0,VALID,98.0102,VALID,-0.0339617,VALID,18.866,VALID,84,VALID,1.13281,
2000-04-02, 00:56:00,VALID,916.586,VALID,0,VALID,97.8919,VALID,-0.0509425,VALID,18.8658,VALID,104,VALID,1.05028,
2000-04-02, 00:57:00,VALID,916.562,VALID,0,VALID,97.761,VALID,-0.0169808,VALID,18.8623,VALID,99,VALID,1.01582,
2000-04-02, 00:58:00,VALID,916.548,VALID,0,VALID,97.7254,VALID,-0.0169808,VALID,18.8685,VALID,104,VALID,0.670025,
2000-04-02, 00:59:00,VALID,916.539,VALID,0,VALID,97.733,VALID,-0.0509425,VALID,18.875,VALID,77,VALID,0.279883,
2000-04-02, 01:00:00,VALID,916.53,VALID,0,VALID,97.7177,VALID,-0.0169808,VALID,18.8727,VALID,56,VALID,0,
2000-04-02, 01:01:00,VALID,916.51,VALID,0,VALID,97.7368,VALID,-0.0679233,VALID,18.8561,VALID,54,VALID,0,
2000-04-02, 01:02:00,VALID,916.489,VALID,0,VALID,97.7355,VALID,-0.0849042,VALID,18.8531,VALID,54,VALID,0,
2000-04-02, 01:03:00,VALID,916.492,VALID,0,VALID,97.8067,VALID,-0.0679233,VALID,18.8626,VALID,54,VALID,0,
2000-04-02, 01:04:00,VALID,916.485,VALID,0,VALID,97.8309,VALID,-0.0339617,VALID,18.8688,VALID,54,VALID,0,
2000-04-02, 01:05:00,VALID,916.486,VALID,0,VALID,97.761,VALID,-0.0169808,VALID,18.8499,VALID,54,VALID,0,
2000-04-02, 01:06:00,VALID,916.493,VALID,0,VALID,97.7025,VALID,-0.0679233,VALID,18.8367,VALID,54,VALID,0,
2000-04-02, 01:07:00,VALID,916.491,VALID,0,VALID,97.6491,VALID,-0.0509425,VALID,18.8295,VALID,61,VALID,0,
2000-04-02, 01:08:00,VALID,916.463,VALID,0,VALID,97.6999,VALID,-0.0849042,VALID,18.83,VALID,83,VALID,0,
2000-04-02, 01:09:00,VALID,916.46,VALID,0,VALID,97.8576,VALID,-0.0339617,VALID,18.8427,VALID,93,VALID,0,
2000-04-02, 01:10:00,VALID,916.459,VALID,0,VALID,97.939,VALID,-0.0679233,VALID,18.8531,VALID,80,VALID,0,
2000-04-02, 01:11:00,VALID,916.438,VALID,0,VALID,97.9937,VALID,-0.0679233,VALID,18.8561,VALID,86,VALID,0,
2000-04-02, 01:12:00,VALID,916.439,VALID,0,VALID,97.9975,VALID,-0.0509425,VALID,18.8457,VALID,105,VALID,0,
2000-04-02, 01:13:00,VALID,916.433,VALID,0,VALID,98.0216,VALID,-0.0509425,VALID,18.8462,VALID,106,VALID,0,
2000-04-02, 01:14:00,VALID,916.424,VALID,0,VALID,98.0496,VALID,-0.0679233,VALID,18.8464,VALID,104,VALID,0,
2000-04-02, 01:15:00,VALID,916.409,VALID,0,VALID,98.0178,VALID,-0.0339617,VALID,18.8432,VALID,104,VALID,0,
2000-04-02, 01:16:00,VALID,916.395,VALID,0,VALID,98.056,VALID,-0.0339617,VALID,18.8365,VALID,104,VALID,0,
2000-04-02, 01:17:00,VALID,916.375,VALID,0,VALID,98.0763,VALID,-0.0509425,VALID,18.8298,VALID,103,VALID,0,
2000-04-02, 01:18:00,VALID,916.37,VALID,0,VALID,97.9924,VALID,-0.0339617,VALID,18.8199,VALID,101,VALID,0,
2000-04-02, 01:19:00,VALID,916.369,VALID,0,VALID,97.9046,VALID,-0.0169808,VALID,18.8171,VALID,96,VALID,0,
2000-04-02, 01:20:00,VALID,916.374,VALID,0,VALID,97.7762,VALID,0,VALID,18.8139,VALID,94,VALID,0,
2000-04-02, 01:21:00,VALID,916.358,VALID,0,VALID,97.8144,VALID,-0.0169808,VALID,18.8395,VALID,68,VALID,0,
2000-04-02, 01:22:00,VALID,916.374,VALID,0,VALID,97.7292,VALID,-0.0169808,VALID,18.8199,VALID,36,VALID,0,
2000-04-02, 01:23:00,VALID,916.36,VALID,0,VALID,97.705,VALID,-0.0169808,VALID,18.8295,VALID,99,VALID,0,
2000-04-02, 01:24:00,VALID,916.338,VALID,0,VALID,97.6898,VALID,-0.0339617,VALID,18.8199,VALID,103,VALID,0,
2000-04-02, 01:25:00,VALID,916.347,VALID,0,VALID,97.7215,VALID,0,VALID,18.8392,VALID,116,VALID,0,
2000-04-02, 01:26:00,VALID,916.348,VALID,0,VALID,97.8233,VALID,0,VALID,18.842,VALID,116,VALID,0,
2000-04-02, 01:27:00,VALID,916.355,VALID,0,VALID,97.8258,VALID,0,VALID,18.8522,VALID,53,VALID,0,
2000-04-02, 01:28:00,VALID,916.369,VALID,0,VALID,97.8182,VALID,-0.0169808,VALID,18.8489,VALID,17,VALID,0,
2000-04-02, 01:29:00,VALID,916.371,VALID,0,VALID,97.8207,VALID,-0.0169808,VALID,18.8328,VALID,31,VALID,0,
2000-04-02, 01:30:00,VALID,916.365,VALID,0,VALID,97.7317,VALID,0,VALID,18.8335,VALID,74,VALID,0.508635,
2000-04-02, 01:31:00,VALID,916.345,VALID,0,VALID,97.4316,VALID,-0.0509425,VALID,18.8492,VALID,84,VALID,0.743359,
2000-04-02, 01:32:00,VALID,916.333,VALID,0,VALID,97.4087,VALID,-0.0169808,VALID,18.8845,VALID,91,VALID,0.922476,
2000-04-02, 01:33:00,VALID,916.338,VALID,0,VALID,97.5524,VALID,0,VALID,18.8941,VALID,91,VALID,0.795313,
2000-04-02, 01:34:00,VALID,916.329,VALID,0,VALID,97.6503,VALID,-0.0169808,VALID,18.8941,VALID,90,VALID,0.96176,
2000-04-02, 01:35:00,VALID,916.311,VALID,0,VALID,97.6058,VALID,0,VALID,18.8782,VALID,88,VALID,1.41758,
2000-04-02, 01:36:00,VALID,916.29,VALID,0,VALID,97.5753,VALID,0,VALID,18.8646,VALID,81,VALID,1.36759,
2000-04-02, 01:37:00,VALID,916.266,VALID,0,VALID,97.5461,VALID,-0.0339617,VALID,18.8618,VALID,88,VALID,1.85059,
2000-04-02, 01:38:00,VALID,916.259,VALID,0,VALID,97.5639,VALID,-0.0169808,VALID,18.8554,VALID,79,VALID,1.46711,
2000-04-02, 01:39:00,VALID,916.264,VALID,0,VALID,97.4609,VALID,0,VALID,18.8524,VALID,76,VALID,0.894922,
2000-04-02, 01:40:00,VALID,916.264,VALID,0,VALID,97.5003,VALID,0,VALID,18.8524,VALID,26,VALID,0.313902,
2000-04-02, 01:41:00,VALID,916.269,VALID,0,VALID,97.5689,VALID,-0.0509425,VALID,18.8554,VALID,319,VALID,0,
2000-04-02, 01:42:00,VALID,916.287,VALID,0,VALID,97.7152,VALID,-0.0169808,VALID,18.8489,VALID,319,VALID,0,
2000-04-02, 01:43:00,VALID,916.281,VALID,0,VALID,97.8169,VALID,-0.0339617,VALID,18.8462,VALID,336,VALID,0,
2000-04-02, 01:44:00,VALID,916.284,VALID,0,VALID,97.85,VALID,-0.0169808,VALID,18.83,VALID,69,VALID,0.673478,
2000-04-02, 01:45:00,VALID,916.273,VALID,0,VALID,97.9848,VALID,0,VALID,18.8263,VALID,63,VALID,0.647656,
2000-04-02, 01:46:00,VALID,916.282,VALID,0,VALID,98.1259,VALID,0,VALID,18.8427,VALID,62,VALID,0.0962171,
2000-04-02, 01:47:00,VALID,916.28,VALID,0,VALID,98.1704,VALID,-0.0339617,VALID,18.8263,VALID,51,VALID,0,
2000-04-02, 01:48:00,VALID,916.258,VALID,0,VALID,98.1768,VALID,-0.0169808,VALID,18.8201,VALID,25,VALID,0,
2000-04-02, 01:49:00,VALID,916.247,VALID,0,VALID,98.1908,VALID,-0.0169808,VALID,18.8037,VALID,64,VALID,0.613086,
2000-04-02, 01:50:00,VALID,916.226,VALID,0,VALID,98.1755,VALID,-0.0169808,VALID,18.8136,VALID,88,VALID,0.921875,
2000-04-02, 01:51:00,VALID,916.207,VALID,0,VALID,98.1819,VALID,-0.0509425,VALID,18.8457,VALID,97,VALID,0.669531,
2000-04-02, 01:52:00,VALID,916.207,VALID,0,VALID,98.1857,VALID,-0.0339617,VALID,18.8554,VALID,92,VALID,0.122196,
2000-04-02, 01:53:00,VALID,916.191,VALID,0,VALID,98.1691,VALID,-0.0169808,VALID,18.8522,VALID,92,VALID,0,
2000-04-02, 01:54:00,VALID,916.151,VALID,0,VALID,98.2709,VALID,-0.0509425,VALID,18.8549,VALID,106,VALID,0.36616,
2000-04-02, 01:55:00,VALID,916.134,VALID,0,VALID,98.3459,VALID,0,VALID,18.8683,VALID,105,VALID,0.0371094,
2000-04-02, 01:56:00,VALID,916.102,VALID,0,VALID,98.379,VALID,-0.0339617,VALID,18.8551,VALID,105,VALID,0,
2000-04-02, 01:57:00,VALID,916.081,VALID,0,VALID,98.4832,VALID,-0.0169808,VALID,18.8551,VALID,104,VALID,0.328711,
2000-04-02, 01:58:00,VALID,916.051,VALID,0,VALID,98.5633,VALID,-0.0679233,VALID,18.8584,VALID,102,VALID,0.911595,
2000-04-02, 01:59:00,VALID,916.018,VALID,0,VALID,98.6409,VALID,0,VALID,18.8614,VALID,94,VALID,1.19844,
2000-04-02, 02:00:00,VALID,915.994,VALID,0,VALID,98.707,VALID,-0.0509425,VALID,18.8681,VALID,98,VALID,0.678486,
2000-04-02, 02:01:00,VALID,915.972,VALID,0,VALID,98.7223,VALID,-0.0849042,VALID,18.8519,VALID,89,VALID,0.307617,
2000-04-02, 02:02:00,VALID,915.961,VALID,0,VALID,98.7401,VALID,-0.0509425,VALID,18.8492,VALID,88,VALID,0.273438,
2000-04-02, 02:03:00,VALID,915.943,VALID,0,VALID,98.7795,VALID,-0.0169808,VALID,18.8457,VALID,82,VALID,0.407227,
2000-04-02, 02:04:00,VALID,915.924,VALID,0,VALID,98.7897,VALID,-0.0339617,VALID,18.8494,VALID,92,VALID,0.751202,
2000-04-02, 02:05:00,VALID,915.921,VALID,0,VALID,98.8329,VALID,-0.0169808,VALID,18.8681,VALID,92,VALID,0.798242,
2000-04-02, 02:06:00,VALID,915.915,VALID,0,VALID,98.8215,VALID,0.0849042,VALID,18.8798,VALID,92,VALID,0.688734,
2000-04-02, 02:07:00,VALID,915.908,VALID,0,VALID,98.81,VALID,0.0849042,VALID,18.8897,VALID,98,VALID,0.721289,
2000-04-02, 02:08:00,VALID,915.889,VALID,0,VALID,98.796,VALID,0.0679233,VALID,18.8833,VALID,91,VALID,0.944311,
2000-04-02, 02:09:00,VALID,915.89,VALID,0,VALID,98.6981,VALID,0.0849042,VALID,18.8729,VALID,88,VALID,1.07285,
2000-04-02, 02:10:00,VALID,915.884,VALID,0,VALID,98.5354,VALID,0.0679233,VALID,18.8922,VALID,89,VALID,2.0847,
2000-04-02, 02:11:00,VALID,915.868,VALID,0,VALID,98.3205,VALID,0.101885,VALID,18.967,VALID,81,VALID,1.00937,
2000-04-02, 02:12:00,VALID,915.861,VALID,0,VALID,98.1628,VALID,0.0849042,VALID,18.9991,VALID,86,VALID,0.348758,
2000-04-02, 02:13:00,VALID,915.848,VALID,0,VALID,97.9657,VALID,0.0849042,VALID,19.0053,VALID,96,VALID,0.602734,
2000-04-02, 02:14:00,VALID,915.832,VALID,0,VALID,97.8754,VALID,0.0509425,VALID,19.0284,VALID,76,VALID,0.327097,
2000-04-02, 02:15:00,VALID,915.833,VALID,0,VALID,97.7749,VALID,0.0509425,VALID,19.0157,VALID,84,VALID,0.547461,
2000-04-02, 02:16:00,VALID,915.821,VALID,0,VALID,97.6974,VALID,0.0509425,VALID,19.0122,VALID,79,VALID,0.393029,
2000-04-02, 02:17:00,VALID,915.819,VALID,0,VALID,97.7699,VALID,0.0679233,VALID,18.9961,VALID,57,VALID,0.00292969,
2000-04-02, 02:18:00,VALID,915.805,VALID,0,VALID,97.7228,VALID,0.0509425,VALID,18.9836,VALID,83,VALID,0.497944,
2000-04-02, 02:19:00,VALID,915.798,VALID,0,VALID,97.6936,VALID,0.0679233,VALID,18.9737,VALID,75,VALID,0.39375,
2000-04-02, 02:20:00,VALID,915.767,VALID,0,VALID,97.6847,VALID,0.0169808,VALID,18.9802,VALID,77,VALID,0.9377,
2000-04-02, 02:21:00,VALID,915.76,VALID,0,VALID,97.56,VALID,-0.0169808,VALID,19.0007,VALID,82,VALID,0.688672,
2000-04-02, 02:22:00,VALID,915.745,VALID,0,VALID,97.5728,VALID,-0.0509425,VALID,19.0233,VALID,83,VALID,0.36801,
2000-04-02, 02:23:00,VALID,915.742,VALID,0,VALID,97.5244,VALID,-0.0169808,VALID,18.9975,VALID,85,VALID,0.351172,
2000-04-02, 02:24:00,VALID,915.742,VALID,0,VALID,97.5105,VALID,-0.0169808,VALID,18.994,VALID,67,VALID,0,
2000-04-02, 02:25:00,VALID,915.75,VALID,0,VALID,97.5651,VALID,0,VALID,18.9836,VALID,91,VALID,0.105273,
2000-04-02, 02:26:00,VALID,915.734,VALID,0,VALID,97.5105,VALID,-0.0169808,VALID,18.9843,VALID,89,VALID,1.18812,
2000-04-02, 02:27:00,VALID,915.722,VALID,0,VALID,97.3426,VALID,0,VALID,18.9903,VALID,88,VALID,1.06035,
2000-04-02, 02:28:00,VALID,915.722,VALID,0.2,VALID,97.3172,VALID,0,VALID,19.007,VALID,102,VALID,0.781851,
2000-04-02, 02:29:00,VALID,915.702,VALID,0,VALID,97.3184,VALID,-0.0169808,VALID,19.0067,VALID,100,VALID,1.05059,
2000-04-02, 02:30:00,VALID,915.669,VALID,0,VALID,97.3808,VALID,-0.0169808,VALID,19.0259,VALID,95,VALID,0.946752,
2000-04-02, 02:31:00,VALID,915.666,VALID,0,VALID,97.4075,VALID,-0.0169808,VALID,19.0363,VALID,99,VALID,0.858203,
2000-04-02, 02:32:00,VALID,915.652,VALID,0,VALID,97.3642,VALID,0.0169808,VALID,19.0159,VALID,103,VALID,0.642027,
2000-04-02, 02:33:00,VALID,915.633,VALID,0,VALID,97.368,VALID,0,VALID,19.0134,VALID,90,VALID,0.912891,
2000-04-02, 02:34:00,VALID,915.628,VALID,0,VALID,97.4494,VALID,-0.0509425,VALID,19.0296,VALID,83,VALID,0.609786,
2000-04-02, 02:35:00,VALID,915.627,VALID,0,VALID,97.4418,VALID,-0.0339617,VALID,19.033,VALID,103,VALID,0.586719,
2000-04-02, 02:36:00,VALID,915.632,VALID,0,VALID,97.4583,VALID,-0.0339617,VALID,19.0455,VALID,81,VALID,0.651442,
2000-04-02, 02:37:00,VALID,915.621,VALID,0,VALID,97.4113,VALID,0,VALID,19.0556,VALID,87,VALID,0.815625,
2000-04-02, 02:38:00,VALID,915.611,VALID,0,VALID,97.3808,VALID,-0.0169808,VALID,19.0651,VALID,97,VALID,0.831209,
2000-04-02, 02:39:00,VALID,915.622,VALID,0,VALID,97.5117,VALID,-0.0679233,VALID,19.0882,VALID,98,VALID,0.255273,
2000-04-02, 02:40:00,VALID,915.641,VALID,0,VALID,97.6313,VALID,-0.0509425,VALID,19.0875,VALID,97,VALID,0.17488,
2000-04-02, 02:41:00,VALID,915.662,VALID,0,VALID,97.7228,VALID,-0.0509425,VALID,19.0907,VALID,96,VALID,0.0513672,
2000-04-02, 02:42:00,VALID,915.669,VALID,0,VALID,97.7355,VALID,-0.0509425,VALID,19.0909,VALID,96,VALID,0,
2000-04-02, 02:43:00,VALID,915.665,VALID,0,VALID,97.7152,VALID,-0.0169808,VALID,19.0909,VALID,95,VALID,0,
2000-04-02, 02:44:00,VALID,915.669,VALID,0,VALID,97.8207,VALID,0,VALID,19.0875,VALID,92,VALID,0,
2000-04-02, 02:45:00,VALID,915.668,VALID,0,VALID,97.8729,VALID,-0.0509425,VALID,19.0815,VALID,92,VALID,0,
2000-04-02, 02:46:00,VALID,915.648,VALID,0,VALID,97.9174,VALID,-0.0509425,VALID,19.0686,VALID,91,VALID,0.0548931,
2000-04-02, 02:47:00,VALID,915.648,VALID,0,VALID,98.0458,VALID,0,VALID,19.0743,VALID,78,VALID,0.286133,
2000-04-02, 02:48:00,VALID,915.636,VALID,0,VALID,98.0967,VALID,-0.0339617,VALID,19.0716,VALID,50,VALID,0.0148237,
2000-04-02, 02:49:00,VALID,915.634,VALID,0,VALID,98.159,VALID,-0.0169808,VALID,19.0651,VALID,42,VALID,0,
2000-04-02, 02:50:00,VALID,915.638,VALID,0,VALID,98.1844,VALID,-0.0169808,VALID,19.0459,VALID,280,VALID,0,
2000-04-02, 02:51:00,VALID,915.623,VALID,0,VALID,98.2391,VALID,0,VALID,19.0489,VALID,279,VALID,0,
2000-04-02, 02:52:00,VALID,915.611,VALID,0,VALID,98.3256,VALID,0,VALID,19.0393,VALID,279,VALID,0,
2000-04-02, 02:53:00,VALID,915.609,VALID,0,VALID,98.4553,VALID,0,VALID,19.0422,VALID,278,VALID,0,
2000-04-02, 02:54:00,VALID,915.61,VALID,0,VALID,98.5468,VALID,0,VALID,19.0489,VALID,286,VALID,0,
2000-04-02, 02:55:00,VALID,915.61,VALID,0,VALID,98.5608,VALID,0.0339617,VALID,19.0296,VALID,289,VALID,0,
2000-04-02, 02:56:00,VALID,915.615,VALID,0,VALID,98.6104,VALID,0,VALID,19.0159,VALID,298,VALID,0,
2000-04-02, 02:57:00,VALID,915.611,VALID,0,VALID,98.6193,VALID,0,VALID,19.0005,VALID,303,VALID,0,
2000-04-02, 02:58:00,VALID,915.61,VALID,0,VALID,98.6282,VALID,-0.0169808,VALID,18.9749,VALID,302,VALID,0,
2000-04-02, 02:59:00,VALID,915.606,VALID,0,VALID,98.6702,VALID,0,VALID,18.958,VALID,315,VALID,0,
2000-04-02, 03:00:00,VALID,915.601,VALID,0,VALID,98.7159,VALID,0,VALID,18.9712,VALID,339,VALID,0,
2000-04-02, 03:01:00,VALID,915.599,VALID,0,VALID,98.7668,VALID,0,VALID,18.9712,VALID,88,VALID,0,
2000-04-02, 03:02:00,VALID,915.589,VALID,0,VALID,98.824,VALID,0,VALID,18.965,VALID,94,VALID,0.17023,
2000-04-02, 03:03:00,VALID,915.588,VALID,0,VALID,98.8787,VALID,0.0169808,VALID,18.9546,VALID,103,VALID,0.231055,
2000-04-02, 03:04:00,VALID,915.594,VALID,0,VALID,98.9448,VALID,0,VALID,18.961,VALID,107,VALID,0.362981,
2000-04-02, 03:05:00,VALID,915.592,VALID,0,VALID,98.9499,VALID,0,VALID,18.9615,VALID,101,VALID,0.631445,
2000-04-02, 03:06:00,VALID,915.585,VALID,0,VALID,98.9982,VALID,0.0169808,VALID,18.965,VALID,101,VALID,0.683594,
2000-04-02, 03:07:00,VALID,915.573,VALID,0,VALID,99.0326,VALID,0,VALID,18.9617,VALID,100,VALID,0.637109,
2000-04-02, 03:08:00,VALID,915.537,VALID,0,VALID,99.0694,VALID,0,VALID,18.9541,VALID,94,VALID,0.446514,
2000-04-02, 03:09:00,VALID,915.523,VALID,0,VALID,99.0987,VALID,0,VALID,18.9677,VALID,95,VALID,0.0314453,
2000-04-02, 03:10:00,VALID,915.502,VALID,0,VALID,99.1343,VALID,0.0169808,VALID,18.9615,VALID,96,VALID,0.575041,
2000-04-02, 03:11:00,VALID,915.467,VALID,0,VALID,99.1521,VALID,-0.0169808,VALID,18.9486,VALID,95,VALID,1.03086,
2000-04-02, 03:12:00,VALID,915.442,VALID,0,VALID,99.1813,VALID,0,VALID,18.955,VALID,99,VALID,0.599159,
2000-04-02, 03:13:00,VALID,915.449,VALID,0,VALID,99.2017,VALID,0,VALID,18.9453,VALID,100,VALID,0.0195313,
2000-04-02, 03:14:00,VALID,915.448,VALID,0,VALID,99.2131,VALID,-0.0169808,VALID,18.9324,VALID,108,VALID,0.00102796,
2000-04-02, 03:15:00,VALID,915.446,VALID,0,VALID,99.2004,VALID,0,VALID,18.9264,VALID,119,VALID,0,
2000-04-02, 03:16:00,VALID,915.443,VALID,0,VALID,99.2182,VALID,0,VALID,18.9165,VALID,137,VALID,0.083734,
2000-04-02, 03:17:00,VALID,915.445,VALID,0,VALID,99.236,VALID,0,VALID,18.8994,VALID,155,VALID,0,
2000-04-02, 03:18:00,VALID,915.434,VALID,0,VALID,99.2576,VALID,-0.0169808,VALID,18.9101,VALID,113,VALID,0.451686,
2000-04-02, 03:19:00,VALID,915.44,VALID,0,VALID,99.2742,VALID,0.0169808,VALID,18.9098,VALID,84,VALID,0.33457,
2000-04-02, 03:20:00,VALID,915.438,VALID,0,VALID,99.2843,VALID,0,VALID,18.9098,VALID,90,VALID,0.656851,
2000-04-02, 03:21:00,VALID,915.42,VALID,0,VALID,99.3301,VALID,0,VALID,18.9165,VALID,99,VALID,1.08418,
2000-04-02, 03:22:00,VALID,915.406,VALID,0,VALID,99.3377,VALID,0,VALID,18.9029,VALID,92,VALID,0.809622,
2000-04-02, 03:23:00,VALID,915.4,VALID,0,VALID,99.3568,VALID,0,VALID,18.9004,VALID,27,VALID,0.228906,
2000-04-02, 03:24:00,VALID,915.399,VALID,0,VALID,99.3441,VALID,0,VALID,18.8974,VALID,87,VALID,0.323317,
2000-04-02, 03:25:00,VALID,915.376,VALID,0,VALID,99.3784,VALID,-0.0169808,VALID,18.8971,VALID,79,VALID,0.9125,
2000-04-02, 03:26:00,VALID,915.354,VALID,0,VALID,99.3734,VALID,0.0339617,VALID,18.8775,VALID,73,VALID,0.450863,
2000-04-02, 03:27:00,VALID,915.346,VALID,0,VALID,99.3899,VALID,0,VALID,18.8741,VALID,73,VALID,0.0109375,
2000-04-02, 03:28:00,VALID,915.351,VALID,0,VALID,99.4013,VALID,0.0169808,VALID,18.877,VALID,356,VALID,0.211939,
2000-04-02, 03:29:00,VALID,915.336,VALID,0,VALID,99.4013,VALID,-0.0169808,VALID,18.8711,VALID,300,VALID,0.0320312,
2000-04-02, 03:30:00,VALID,915.325,VALID,0,VALID,99.4369,VALID,0.0169808,VALID,18.881,VALID,159,VALID,0,
2000-04-02, 03:31:00,VALID,915.317,VALID,0,VALID,99.4687,VALID,0,VALID,18.8907,VALID,116,VALID,0,
2000-04-02, 03:32:00,VALID,915.307,VALID,0,VALID,99.4891,VALID,-0.0169808,VALID,18.9096,VALID,101,VALID,0,
2000-04-02, 03:33:00,VALID,915.315,VALID,0,VALID,99.5018,VALID,0,VALID,18.9223,VALID,90,VALID,1.11973,
2000-04-02, 03:34:00,VALID,915.326,VALID,0,VALID,99.5107,VALID,0,VALID,18.9324,VALID,95,VALID,0.909951,
2000-04-02, 03:35:00,VALID,915.344,VALID,0,VALID,99.5158,VALID,0,VALID,18.929,VALID,89,VALID,1.02773,
2000-04-02, 03:36:00,VALID,915.365,VALID,0,VALID,99.5196,VALID,0.0169808,VALID,18.9391,VALID,83,VALID,0.747796,
2000-04-02, 03:37:00,VALID,915.383,VALID,0,VALID,99.5094,VALID,0,VALID,18.9165,VALID,92,VALID,0.617188,